Showing default

LES 6, 3431

Orbit data source: Space-Track

LES 6, 3431 is a payload satellite owned by SAMSO (US) in GEO that was launched on Thu, 26 Sep 1968 UTC via a TITAN IIIC launch vehicle from the Air Force Eastern Test Range (AFETR). Payload-class satellites include a variety of spacecraft equipped with specific instruments for various scientific and technological missions. These include communications satellites like Starlink; space stations such as the ISS; scientific satellites like the Hubble; Earth observation satellites from companies like Planet Labs, Umbra, and HawkEye 360; GPS; miniature CubeSats for education and research; and military/defense satellites.

Loading next visibility...
Identifier
3431, 1968-081D
Orbit
GEO
Country
Flag of USUS
Related business
Manufacturer
MIT-LL
Mission
Non-operational spacecraft
Bus & Motor
LES, Unknown motor
Mass
169 kg wet, ~149 kg dry
Launch date (UTC)
1968-09-26 (57 years ago)
Launch vehicle
TITAN IIIC
Launch site
Air Force Eastern Test Range (AFETR)
Object type
Payload
Rocket body
Debris
Shape & HBR
Unknown
Radar Cross Section
Large (>1 m²)

Expand to show TLE details & history
Last TLE update: 11 hours ago

TLE from 11 hours ago
0 LES 6
1 03431U 68081D   25354.41061529  .00000148  00000-0  00000-0 0  9994
2 03431   1.2527  28.7568 0009648 294.8750 126.6398  1.00246951118999
Epoch: 2025-12-20T09:51Z
TLE epoch observation values (Epoch: 2025-12-20T09:51:17.161Z)
Latitude
1.1293°
Longitude
-146.71458°
Altitude
35,817.321 km
Speed
3.073 km/s
True Right ascension
06h 01m 22s
True Declination
1° 07' 41"
Sunlit
Object was in daylight at epoch
Visualization orbit readout
Latitude
Unknown
Longitude
Unknown
Altitude
Unknown
Speed
Unknown
Apparent Right ascension
Unknown
Apparent Declination
Unknown
Sunlit
N/A
Visualization observer readout
Local Sidereal Time
19:58:46
Azimuth
Unknown
Elevation
Unknown
Doppler factor
Unknown
Orbital elements
Apogee altitude
35,835.316 km
Perigee altitude
35,753.939 km
Semi-major axis
42,172.765 km
Eccentricity
0.00096
Inclination
1.2527°
RAAN
28.7568°
Arg. of periapsis
294.875°
True anomaly
126.72845°
Mean anomaly
126.6398°
Eccentric anomaly
126.68413°
Mean motion
0.25061 °/min
Orbital period
1,436.51 mins
BSTAR
0
Loading maneuver chart data...
Computing Atmospheric mass density...

Documentation

Showing up to 5 results
|